This is the latest recevied weather packets stored in our database for station/object OE6JUE. If no packets are shown the sender has not sent any weather packets the latest 10 day(s).
| Time | Temp. | Humidity | Pressure | Rain* | Wind** | Luminosity | Snow |
|---|---|---|---|---|---|---|---|
| 1788497183 | 16.11° C | 80% | 1022.3 hPa | 0 mm | - | - | - |
| 1788496883 | 16.11° C | 80% | 1022.1 hPa | 0 mm | - | - | - |
| 1788496583 | 15.56° C | 80% | 1022.1 hPa | 0 mm | - | - | - |
| 1788496283 | 16.11° C | 79% | 1022.2 hPa | 0 mm | - | - | - |
| 1788495984 | 16.11° C | 80% | 1022.1 hPa | 0 mm | - | - | - |
| 1788495684 | 16.11° C | 80% | 1022 hPa | 0 mm | - | - | - |
| 1788495384 | 16.11° C | 79% | 1022 hPa | 0 mm | - | - | - |
| 1788495083 | 16.11° C | 79% | 1022 hPa | 0 mm | - | - | - |
| 1788494784 | 16.67° C | 80% | 1022 hPa | 0 mm | - | - | - |
| 1788494484 | 16.11° C | 80% | 1022 hPa | 85.85 mm | - | - | - |
| 1788494183 | 16.11° C | 79% | 1022 hPa | 0 mm | - | - | - |
| 1788493883 | 16.11° C | 79% | 1022 hPa | 0 mm | - | - | - |
| 1788493583 | 16.67° C | 77% | 1021.9 hPa | 0 mm | - | - | - |
| 1788493284 | 16.67° C | 76% | 1021.9 hPa | 0 mm | - | - | - |
| 1788492984 | 16.11° C | 78% | 1021.9 hPa | 0 mm | - | - | - |
| 1788492683 | 16.11° C | 79% | 1022.1 hPa | 0 mm | - | - | - |
| 1788492384 | 16.11° C | 79% | 1022.1 hPa | 0 mm | - | - | - |
| 1788492083 | 16.67° C | 77% | 1021.9 hPa | 0 mm | - | - | - |
| 1788491783 | 16.67° C | 77% | 1021.9 hPa | 0 mm | - | - | - |
| 1788491483 | 16.67° C | 76% | 1022 hPa | 0 mm | - | - | - |
| 1788491183 | 16.67° C | 76% | 1022.3 hPa | 0 mm | - | - | - |
| 1788490883 | 16.67° C | 76% | 1022.1 hPa | 85.85 mm | - | - | - |
| 1788490583 | 16.67° C | 77% | 1022.2 hPa | 0 mm | - | - | - |
| 1788490283 | 17.22° C | 76% | 1022.3 hPa | 0 mm | - | - | - |
| 1788489984 | 17.22° C | 76% | 1022.3 hPa | 0 mm | - | - | - |
* Rain latest hour (hover to see other rain measurements)
** Current wind speed in m/s (hover to see current wind gust speed)